This demonstration page uses our WeatherBlox Daily Observations layout. Learn more.

Left ArrowRight Arrow

Hourly Observations for September 1, 2020

Temp ( °F °C ) Dew Point ( °F °C ) Humidity (%) Winds ( mph kmh ) Pressure ( in mb ) Visibility ( mi km ) Precip ( " mm )
12:51 am 00:51 Clear 80 26.7 60 15.6 51 51 VRB 5 7 29.74 1007 10 16.0934 0 0
1:51 am 01:51 Clear 80 26.7 59 15 49 49 Calm 29.73 1007 10 16.0934 0 0
2:51 am 02:51 Mostly Clear 77 25 62 16.7 60 60 NW 13 20 29.75 1007 10 16.0934 0 0
3:51 am 03:51 Clear 77 25 61 16.1 58 58 NW 12 19 29.76 1008 10 16.0934 0 0
4:51 am 04:51 Clear 76 24.4 63 17.2 64 64 NW 10 17 29.77 1008 10 16.0934 0 0
5:51 am 05:51 Clear 75 23.9 63 17.2 66 66 NW 8 13 29.78 1008 10 16.0934 0 0
6:51 am 06:51 Sunny 74 23.3 64 17.8 71 71 SSW 5 7 29.82 1010 10 16.0934 0 0
7:51 am 07:51 Sunny 77 25 63 17.2 62 62 S 5 7 29.83 1010 10 16.0934 0 0
8:51 am 08:51 Cloudy 80 26.7 63 17.2 56 56 NW 14 22 29.84 1011 10 16.0934 0 0
9:51 am 09:51 Sunny 85 29.4 62 16.7 46 46 NW 15 24 29.83 1010 10 16.0934 0 0
10:51 am 10:51 Mostly Sunny 87 30.6 62 16.7 43 43 WNW 15 24 29.83 1010 10 16.0934 0 0
11:51 am 11:51 Sunny 89 31.7 62 16.7 41 41 WNW 14 22 29.8 1009 10 16.0934 0 0
12:51 pm 12:51 Sunny 92 33.3 62 16.7 37 37 NW 14 22 29.78 1008 10 16.0934 0 0
1:51 pm 13:51 Mostly Sunny 90 32.2 60 15.6 37 37 W 13 20 29.76 1008 10 16.0934 0 0
2:51 pm 14:51 Sunny 93 33.9 59 15 32 32 NW 17 28 29.73 1007 10 16.0934 0 0
3:51 pm 15:51 Sunny 94 34.4 57 13.9 29 29 WNW 23 37 29.7 1006 10 16.0934 0 0
4:51 pm 16:51 Sunny 93 33.9 56 13.3 29 29 WNW 17 28 29.7 1006 10 16.0934 0 0
5:51 pm 17:51 Sunny 91 32.8 57 13.9 32 32 WNW 17 28 29.72 1006 10 16.0934 0 0
6:51 pm 18:51 Clear 88 31.1 57 13.9 35 35 WNW 14 22 29.75 1007 10 16.0934 0 0
7:51 pm 19:51 Clear 86 30 57 13.9 37 37 WNW 17 28 29.77 1008 10 16.0934 0 0
8:51 pm 20:51 Clear 83 28.3 57 13.9 41 41 NW 8 13 29.79 1009 10 16.0934 0 0
9:51 pm 21:51 Clear 83 28.3 57 13.9 41 41 NW 13 20 29.8 1009 10 16.0934 0 0
10:51 pm 22:51 Clear 82 27.8 57 13.9 42 42 NW 12 19 29.81 1010 10 16.0934 0 0
11:51 pm 23:51 Clear 82 27.8 59 15 46 46 NW 12 19 29.81 1009 10 16.0934 0 0

Powered by AerisWeather